| time (UTC) | temp C | wind direction | speed KPH | gust KPH | rain 1hr cm | rain 24hr cm | rain mn cm | humidity % | barometer mb |
| 20260504081509 | 11 | 333 | 9.7 | 27.4 | 0.00 | 0.00 | 0.00 | 43 | 1007.6 |
| 20260504050009 | 4 | 20 | 3.2 | 8.0 | 0.00 | 0.00 | 0.00 | 81 | 1005.8 |
| 20260504044515 | 3 | 25 | 0.0 | 4.8 | 0.00 | 0.00 | 0.00 | 82 | 1005.8 |
| 20260504043017 | 3 | 25 | 3.2 | 9.7 | 0.00 | 0.00 | 0.00 | 82 | 1005.7 |
| 20260504041510 | 4 | 33 | 1.6 | 9.7 | 0.00 | 0.00 | 0.00 | 79 | 1005.4 |
| 20260504040010 | 4 | 30 | 8.0 | 17.7 | 0.00 | 0.03 | 0.00 | 82 | 1005.4 |
| 20260504034509 | 3 | 355 | 4.8 | 16.1 | 0.00 | 0.03 | 0.00 | 89 | 1005.4 |
| 20260504033010 | 3 | 11 | 6.4 | 12.9 | 0.00 | 0.03 | 0.00 | 92 | 1005.2 |
| 20260504031510 | 3 | 16 | 9.7 | 14.5 | 0.00 | 0.03 | 0.00 | 94 | 1005.1 |
| 20260504030008 | 3 | 343 | 0.0 | 6.4 | 0.00 | 0.03 | 0.00 | 95 | 1005.1 |
| 20260504024510 | 3 | 343 | 0.0 | 9.7 | 0.00 | 0.03 | 0.00 | 95 | 1005.0 |
| 20260504023010 | 3 | 345 | 1.6 | 9.7 | 0.00 | 0.03 | 0.00 | 95 | 1005.0 |
| 20260504021511 | 4 | 5 | 6.4 | 14.5 | 0.00 | 0.03 | 0.00 | 95 | 1005.1 |
| 20260504020016 | 4 | 40 | 9.7 | 17.7 | 0.00 | 0.03 | 0.00 | 95 | 1005.1 |
| 20260504014512 | 4 | 355 | 8.0 | 14.5 | 0.00 | 0.03 | 0.00 | 95 | 1005.0 |
| 20260504013012 | 4 | 346 | 3.2 | 9.7 | 0.00 | 0.03 | 0.00 | 95 | 1005.0 |
| 20260504011510 | 5 | 32 | 0.0 | 9.7 | 0.00 | 0.03 | 0.00 | 94 | 1005.0 |
| 20260504010008 | 5 | 5 | 1.6 | 8.0 | 0.00 | 0.03 | 0.00 | 94 | 1005.0 |
| 20260504004509 | 4 | 9 | 0.0 | 4.8 | 0.00 | 0.03 | 0.00 | 93 | 1005.1 |
| 20260504003009 | 4 | 9 | 0.0 | 6.4 | 0.00 | 0.03 | 0.00 | 92 | 1005.2 |
| 20260504001510 | 5 | 16 | 1.6 | 8.0 | 0.00 | 0.03 | 0.00 | 92 | 1005.3 |
| 20260504000009 | 5 | 22 | 1.6 | 8.0 | 0.00 | 0.03 | 0.00 | 91 | 1005.3 |
| 20260503233009 | 5 | 98 | 0.0 | 4.8 | 0.00 | 0.03 | 0.00 | 90 | 1005.5 |
| 20260503231511 | 6 | 140 | 0.0 | 0.0 | 0.00 | 0.03 | 0.00 | 89 | 1005.6 |
| 20260503230010 | 6 | 140 | 0.0 | 3.2 | 0.00 | 0.03 | 0.00 | 88 | 1005.6 |
| 20260503224510 | 6 | 148 | 0.0 | 0.0 | 0.00 | 0.03 | 0.00 | 88 | 1005.8 |
| 20260503223010 | 7 | 148 | 0.0 | 0.0 | 0.00 | 0.03 | 0.00 | 88 | 1006.0 |
| 20260503221502 | 7 | 149 | 0.0 | 0.0 | 0.00 | 0.03 | 0.00 | 87 | 1006.0 |
| 20260503220010 | 7 | 148 | 0.0 | 0.0 | 0.00 | 0.03 | 0.03 | 87 | 1005.8 |
| 20260503214510 | 7 | 148 | 0.0 | 0.0 | 0.00 | 0.03 | 0.03 | 88 | 1006.2 |
| 20260503213011 | 7 | 148 | 0.0 | 1.6 | 0.00 | 0.03 | 0.03 | 87 | 1006.2 |
| 20260503211509 | 7 | 148 | 0.0 | 3.2 | 0.00 | 0.03 | 0.03 | 87 | 1006.2 |
| 20260503210010 | 7 | 150 | 1.6 | 4.8 | 0.00 | 0.03 | 0.03 | 87 | 1006.3 |
| 20260503203011 | 8 | 148 | 0.0 | 4.8 | 0.00 | 0.03 | 0.03 | 86 | 1006.4 |
| 20260503201510 | 8 | 148 | 0.0 | 3.2 | 0.00 | 0.03 | 0.03 | 85 | 1006.4 |
| 20260503200010 | 8 | 149 | 0.0 | 1.6 | 0.00 | 0.03 | 0.03 | 84 | 1006.5 |
| 20260503194510 | 8 | 148 | 0.0 | 3.2 | 0.00 | 0.03 | 0.03 | 84 | 1006.8 |
| 20260503193010 | 8 | 148 | 1.6 | 9.7 | 0.00 | 0.03 | 0.03 | 84 | 1006.9 |
| 20260503191510 | 8 | 150 | 0.0 | 8.0 | 0.00 | 0.03 | 0.03 | 83 | 1006.8 |
| 20260503190027 | 8 | 148 | 3.2 | 11.3 | 0.00 | 0.03 | 0.03 | 83 | 1006.8 |
| 20260503184510 | 8 | 153 | 4.8 | 14.5 | 0.00 | 0.03 | 0.03 | 83 | 1006.9 |
| 20260503183015 | 8 | 144 | 4.8 | 12.9 | 0.00 | 0.03 | 0.03 | 84 | 1007.0 |
| 20260503181510 | 9 | 136 | 11.3 | 20.9 | 0.00 | 0.03 | 0.03 | 83 | 1006.8 |
| 20260503180012 | 9 | 146 | 12.9 | 19.3 | 0.00 | 0.03 | 0.03 | 82 | 1006.8 |
| 20260503174509 | 10 | 134 | 11.3 | 20.9 | 0.00 | 0.03 | 0.03 | 81 | 1006.7 |
| 20260503173009 | 10 | 147 | 11.3 | 19.3 | 0.00 | 0.03 | 0.03 | 78 | 1006.7 |
| 20260503171514 | 10 | 134 | 8.0 | 17.7 | 0.00 | 0.03 | 0.03 | 76 | 1006.7 |